Location: Newark
(49.3808°N, 3.1844°E)
Time: 15:23:15
(UTC+00:00)

Vanguard 2 Rocket - Pass Details

Date: 24 November 2019
Orbit: 554 x 3326 km, 32.9° (Epoch: 10 December)

Event Time Altitude Azimuth Distance (km) Brightness Sun altitude
Rises 02:09:03 0° 234° (SW) 2,779 - -47.8°
Reaches altitude 10° 02:13:14 10° 191° (S) 2,117 - -47.2°
Maximum altitude 02:14:06 10° 180° (S) 2,155 - -47.1°
Drops below altitude 10° 02:15:00 10° 170° (S) 2,261 - -46.9°
Exits shadow 02:20:14 - 133° (SE) 3,669 10.2 -46.2°
Sets 02:20:33 0° 132° (SE) 3,773 10.3 -46.1°
